Other Public Products
Issued by NWS Grand Forks, ND

Home | Current Version | Previous Version | Graphics & Text | Print | Product List | Glossary On
Versions: 1 2 3 4 5 6 7 8 9 10 11 12 13 14 15 16 17 18 19 20 21 22 23 24 25 26 27 28 29 30 31 32 33 34 35 36 37 38 39 40 41 42 43 44 45 46 47 48 49 50
000
FPUS83 KFGF 232210
OPUFGF
PRAIRIE TO PINES WEATHER ROUNDUP
NATIONAL WEATHER SERVICE EASTERN NORTH DAKOTA/GRAND FORKS ND
500 PM CDT WED JUL 23 2014

 **SATELLITE DATA USED TO AUGMENT SKY COVER AT AUTOMATED STATIONS**
 *****  WEATHER ACROSS EASTERN NORTH DAKOTA  *****

CITY           SKY/WX    TMP DP  RH WIND       PRES   REMARKS
GRAND FORKS    MOSUNNY   75  59  57 NW5       30.24F
GRAND FORKS AF MOSUNNY   72  58  61 N7        30.26F
GRAND CITY NWS   N/A     77 N/A N/A N9          N/A
BUXTON         NOT AVBL
DEVILS LAKE    SUNNY     72  57  60 SE7       30.23F
FARGO          MOSUNNY   77  58  51 N5        30.23F
WAHPETON ARPT  MOCLDY    77  52  41 CALM      30.23F
$$

 *****  WEATHER ACROSS CENTRAL AND WESTERN NORTH DAKOTA  *****

CITY           SKY/WX    TMP DP  RH WIND       PRES   REMARKS
JAMESTOWN      SUNNY     79  57  46 SE10      30.22F
BISMARCK       SUNNY     83  60  45 SE16G23   30.17F
MINOT          MOSUNNY   77  65  66 E17       30.17F
MINOT AFB      PTSUNNY   76  68  75 E18       30.17F
GARRISON         N/A     80  66  62 SE14G20   30.16F
WILLISTON      PTSUNNY   88  62  41 SE23G30   30.09F
DICKINSON      MOSUNNY   81  63  54 SE20G29   30.12F
HETTINGER      MOSUNNY   82  60  47 SE16G25   30.14F
$$

 *****  OTHER OBSERVATIONS NORTHEAST NORTH DAKOTA  *****

CITY           SKY/WX    TMP DP  RH WIND       PRES   REMARKS
WALHALLA       FAIR      72  52  49 NE3         N/A
LANGDON        MOCLDY    70  57  64 E6        30.27F
CAVALIER       FAIR      73  54  49 NE6       30.26F
GRAFTON        FAIR      72  54  53 N8        30.25F
CANDO          FAIR      72  57  60 S5        30.25F
FORT TOTTEN    NOT AVBL
ROLLA          FAIR      70  57  64 E7        30.27F
RUGBY          FAIR      72  63  73 E15       30.22F
 ***** THE ABOVE OBSERVATIONS ARE NON NWS ARE NOT QUALITY
        CONTROLLED AND MAY MIS-REPORT RAIN FOR SNOW...
$$

 *****  OTHER OBSERVATIONS SOUTHEAST NORTH DAKOTA *****

CITY           SKY/WX    TMP DP  RH WIND       PRES   REMARKS
COOPERSTOWN    NOT AVBL
VALLEY CITY    FAIR      77  59  53 E8        30.24F
OAKES          NOT AVBL
GWINNER        CLEAR     79  57  47 SE6       30.24F
SHEYENNE NWR     N/A     80  60  50 SE2       29.95S
BUFFALO        NOT AVBL
WYNDMERE       NOT AVBL
 ***** THE ABOVE OBSERVATIONS ARE NON NWS ARE NOT QUALITY
       CONTROLLED AND MAY MIS-REPORT RAIN FOR SNOW...
$$

  *****  WEATHER ACROSS NORTHERN MINNESOTA  *****

CITY           SKY/WX    TMP DP  RH WIND       PRES   REMARKS
FLAG ISLAND    SUNNY     70  46  43 NE7       30.25S
WARROAD        NOT AVBL
ROSEAU         SUNNY     73  57  56 CALM      30.24F
HALLOCK        MOSUNNY   73  48  40 N5        30.24F
THF RVR FALLS  PTSUNNY   73  55  53 NW7       30.25S
HALSTAD          N/A     78  54  42 N5          N/A
FOSSTON        SUNNY     75  55  50 W8        30.25S
BAUDETTE       SUNNY     73  48  41 NW7       30.25F
WASKISH        SUNNY     75  55  50 CALM      30.22F
CROOKSTON      SUNNY     73  59  60 NW8       30.25F
$$
  *****  WEATHER ACROSS CENTRAL AND WEST MINNESOTA  *****

CITY           SKY/WX    TMP DP  RH WIND       PRES   REMARKS
BEMIDJI        MOSUNNY   74  54  48 N8G17     30.24S
PARK RAPIDS    MOSUNNY   76  51  41 NW10      30.24F
WADENA         MOSUNNY   73  57  56 N7        30.24S
DETROIT LAKES  SUNNY     73  59  60 N8        30.27S
MOORHEAD       MOSUNNY   75  59  57 N6        30.24F
FERGUS FALLS   PTSUNNY   75  54  46 N6        30.23F
ELBOW LAKE     MOCLDY    76  58  53 N7        30.24F
MORRIS MN      MOSUNNY   79  57  47 NE5       30.23F
STAPLES        MOSUNNY   75  52  43 NW7       30.23F
WHEATON        SUNNY     77  55  47 CALM      30.25F
$$
  *****  WEATHER ELSEWHERE ACROSS MINNESOTA  *****

CITY           SKY/WX    TMP DP  RH WIND       PRES   REMARKS
DULUTH         MOSUNNY   75  52  44 NE7       30.21F
INTRNTL FALLS  PTSUNNY   71  50  47 NE6       30.24F
ELY            MOSUNNY   70  46  43 N5        30.23F
CLOQUET        MOSUNNY   73  46  38 N5        30.21F
BRAINERD       SUNNY     76  49  38 N9        30.23F
HIBBING        SUNNY     73  50  44 N7        30.23F
ALEXANDRIA     SUNNY     77  54  44 N7        30.26F
SAINT CLOUD    SUNNY     81  50  33 N6        30.22F
MINNEAPOLIS    MOSUNNY   82  50  32 NW8       30.19F
$$

  *****  WEATHER ACROSS SOUTH DAKOTA  *****

CITY           SKY/WX    TMP DP  RH WIND       PRES   REMARKS
SIOUX FALLS    MOSUNNY   80  58  46 E10       30.21F
BROOKINGS      NOT AVBL
WATERTOWN      SUNNY     79  53  40 E6        30.24F
HURON          SUNNY     81  55  40 E12       30.19F
SISSETON         N/A     78  55  44 CALM      30.22F
ABERDEEN       MOSUNNY   80  56  43 SE8       30.21F
MITCHELL       SUNNY     83  59  44 SE10      30.19F
PIERRE         MOSUNNY   87  55  33 E18G25    30.12F
MOBRIDGE       MOSUNNY   83  60  45 SE15      30.15F
RAPID CITY     SUNNY     84  64  50 SE17      30.14F
$$

  *****  SOME WEATHER IN NEARBY STATES *****

CITY           SKY/WX    TMP DP  RH WIND       PRES   REMARKS
GLASGOW MT     SUNNY     92  56  29 SE25G31   29.98F HX  90
GREAT FALLS MT SUNNY     91  45  20 W8        29.98F
CHEYENNE WY    SUNNY     81  61  50 S21G33    30.32F
SCOTTSBLUFF NE SUNNY     90  63  40 S14       30.17F HX  91
OMAHA NE       MOSUNNY   86  58  38 NE10      30.16F
DES MOINES IA  MOSUNNY   84  58  40 NE13      30.15F
DAVENPORT IA   MOSUNNY   79  57  46 NE15      30.15F
CHICAGO IL     MOSUNNY   69  50  50 NE18G25   30.14S
EAU CLAIRE WI  MOSUNNY   81  51  35 N8        30.17F
LA CROSSE WI   MOSUNNY   81  55  40 NW10      30.16F
$$

  *****  SOME NATIONAL WEATHER *****

CITY           SKY/WX    TMP DP  RH WIND       PRES   REMARKS
LA GUARDIA NY  MOSUNNY   84  71  65 S10       29.78F
RALEIGH NC     MOSUNNY   91  70  49 SW10      29.92F HX  96
ATLANTA GA     MOSUNNY   87  68  52 SW6       30.00F HX  90
NEW ORLEANS LA PTSUNNY   84  74  71 S7        29.98F HX  91
OKLAHOMA CITY  CLOUDY    97  70  41 N9        30.04F HX 103
ALBUQUERQUE NM PTSUNNY   87  54  32 S14       30.29F
SALT LAKE CITY PTSUNNY   99  36  11 S18       30.00F HX  93
LOS ANGELES CA MOSUNNY   78  57  48 W21       29.94F
BOISE ID       SUNNY     92  42  17 VRB3      29.95F
SEATTLE WA     LGT RAIN  60  58  92 S8        30.06R
$$

*** WEATHER ACROSS MANITOBA...SASKATCHEWAN AND ONTARIO ***
                ***ONTARIO***

CITY           SKY/WX    TMP DP  RH WIND       PRES   REMARKS
GERALDTON      PTSUNNY   70  46  43 NW14      30.15F
THUNDER BAY    PTSUNNY   72  48  43 N12G17    30.19F
SIOUX LOOKOUT  MOSUNNY   70  46  43 W7        30.23F
TORONTO        CLOUDY    68  55  64 N20G25    29.97S
BIG TROUT LK   SUNNY     75  50  41 NW13G23   30.03F
PICKLE LAKE    PTSUNNY   73  48  40 NW6       30.16F
DRYDEN         SUNNY     72  46  40 NW8       30.24F
KENORA         MOSUNNY   72  45  37 NW7       30.26
$$
                *** MANITOBA***

CITY           SKY/WX    TMP DP  RH WIND       PRES   REMARKS
BRANDON        MOSUNNY   75  50  41 E9        30.24F
DAUPHIN        SUNNY     73  52  46 SE14      30.23F
ISLAND LAKE    MOSUNNY   77  52  41 NW7       30.17F
PILOT MOUND      N/A     70  57  64 SE6         N/A
THE PAS        MOSUNNY   79  50  36 SE3       30.17F
THOMPSON       MOSUNNY   79  50  36 NW9       30.12F
WINNIPEG       MOSUNNY   73  46  38 VRB2      30.25F
LYNN LAKE      SUNNY     82  43  24 NW6       30.13F
CHURCHILL      MOSUNNY   66  48  52 NE3       30.06F
GILLAM         PTSUNNY   77  52  41 W12       30.07F
$$
                ***SASKATCHEWAN***

CITY           SKY/WX    TMP DP  RH WIND       PRES   REMARKS
ESTEVAN        CLOUDY    75  64  69 E16       30.15F
KINDERSLEY     PTSUNNY   75  63  64 SE16G24   30.03F
LLOYDMINSTER   LGT RAIN  70  64  83 S6        30.04S
PRINCE ALBERT  PTSUNNY   77  59  53 S12G17    30.14F
REGINA         PTSUNNY   79  59  50 SE20      30.13F


USA.gov is the U.S. government's official web portal to all federal, state and local government web resources and services.